Simultaneous Nadir Overpasses (SNOs) Predictions

Prediction of SNOs near US between AQUA and NPP Satellite Orbit:

Table of predicted SNOs near US for the next 10.0 days since TLE Epoch: 12/22/2018
Index Date (AQUA) Time (AQUA) AQUA Lat,Lon Date (NPP) Time (NPP) NPP Lat,Lon Distance(km) Time Diff (sec)
1 12/24/2018 07:18:44 49.91, -75.97 12/24/2018 07:20:34 50.39, -78.27 172.28 110
2 12/24/2018 08:57:37 49.92,-100.69 12/24/2018 09:02:02 50.49,-103.60 216.70 265
3 12/26/2018 18:16:54 49.96, -80.17 12/26/2018 18:10:51 49.69, -81.82 121.95 363
4 12/26/2018 19:55:47 49.96,-104.89 12/26/2018 19:52:19 49.58,-107.15 167.23 208
5 12/26/2018 21:30:57 36.66,-124.98 12/26/2018 21:29:57 36.14,-127.64 244.39 60
6 12/29/2018 09:23:38 23.16,-113.49 12/29/2018 09:16:10 23.28,-114.03 56.86 448




NCC Satellite Simultaneous Nadir Overpasses (SNOs) Prediction Service
